Effingham, IL

11:27 PM CST on December 09, 2019 (GMT -0600)
Effingham

Weather History for K1H2 - November, 2019

Change the Weather History Date:

Saturday, November 16, 2019

  Actual Average (WUND) Record (WUND)
Temperature  
Mean Temperature 34 °F -  
Max Temperature 44 °F - - (-1)
Min Temperature 24 °F - - (-1)
Degree Days  
Heating Degree Days 31    
Moisture  
Dew Point 22 °F    
Average Humidity 65    
Maximum Humidity 80    
Minimum Humidity 40    
Precipitation  
Precipitation 0.00 in - - ()
Sea Level Pressure  
Sea Level Pressure 30.31 in    
Wind  
Wind Speed 1 mph ()    
Max Wind Speed 8 mph    
Max Gust Speed -    
Visibility 5.9 miles    
Events      
Averages and records for this station are not official NWS values.
T = Trace of Precipitation, MM = Missing Value Source: Averaged Metar Reports

Daily Weather History Graph

Daily Weather History Graph

Search for Another Location

Airport or City:

Astronomy

Nov. 16, 2019 Rise Set
Actual Time 6:38 AM CST 4:39 PM CST
Civil Twilight 6:09 AM CST 5:07 PM CST
Nautical Twilight 5:37 AM CST 5:40 PM CST
Astronomical Twilight 5:05 AM CST 6:11 PM CST
Moon 8:12 PM CST (11/16) 10:30 AM CST (11/16)
Length of Visible Light 10h 58m
Length of Day
10h 01m
Waning Gibbous, 82% of the Moon is Illuminated
Nov 16
Waning Gibbous
Nov 19
Last Quarter
Nov 26
New
Dec 4
First Quarter
Dec 11
Full

Hourly Weather History & Observations

Time (CST) Temp. Windchill Dew Point Humidity Pressure Visibility Wind Dir Wind Speed Gust Speed Precip Events Conditions
12:15 AM 27.0 °F - 20.3 °F 76% 30.38 in 5.0 mi Calm Calm - N/A   Haze
12:35 AM 27.0 °F - 20.7 °F 77% 30.38 in 7.0 mi Calm Calm - N/A   Clear
12:55 AM 30.7 °F - 22.3 °F 71% 30.38 in 10.0 mi Calm Calm - N/A   Clear
1:15 AM 31.1 °F 27.7 °F 21.9 °F 69% 30.38 in 10.0 mi NE 3.5 mph - N/A   Clear
1:35 AM 31.1 °F - 21.6 °F 68% 30.38 in 10.0 mi Calm Calm - N/A   Clear
1:55 AM 30.6 °F - 21.6 °F 69% 30.38 in 7.0 mi Calm Calm - N/A   Clear
2:15 AM 30.2 °F - 21.7 °F 71% 30.37 in 7.0 mi Calm Calm - N/A   Clear
2:35 AM 30.2 °F - 21.9 °F 71% 30.37 in 7.0 mi Calm Calm - N/A   Clear
2:55 AM 30.0 °F - 22.1 °F 72% 30.37 in 7.0 mi Calm Calm - N/A   Clear
3:15 AM 30.0 °F - 22.5 °F 73% 30.37 in 7.0 mi Calm Calm - N/A   Clear
3:35 AM 28.2 °F - 21.0 °F 74% 30.37 in 5.0 mi Calm Calm - N/A   Haze
3:55 AM 27.9 °F - 21.7 °F 78% 30.37 in 4.0 mi Calm Calm - N/A   Haze
4:15 AM 26.4 °F - 20.7 °F 79% 30.37 in 4.0 mi Calm Calm - N/A   Haze
4:35 AM 26.2 °F - 20.5 °F 79% 30.37 in 2.5 mi Calm Calm - N/A   Haze
4:55 AM 25.9 °F - 20.5 °F 80% 30.37 in 3.0 mi Calm Calm - N/A   Haze
5:15 AM 25.5 °F - 20.1 °F 80% 30.37 in 3.0 mi Calm Calm - N/A   Haze
5:35 AM 25.0 °F - 19.6 °F 80% 30.38 in 4.0 mi Calm Calm - N/A   Haze
5:55 AM 26.1 °F - 20.5 °F 79% 30.38 in 4.0 mi Calm Calm - N/A   Haze
6:15 AM 26.2 °F - 20.7 °F 79% 30.39 in 3.0 mi Calm Calm - N/A   Haze
6:35 AM 25.3 °F - 19.6 °F 79% 30.39 in 2.0 mi Calm Calm - N/A   Haze
6:55 AM 24.4 °F - 18.9 °F 79% 30.39 in 1.8 mi Calm Calm - N/A   Haze
7:15 AM 25.2 °F - 19.8 °F 80% 30.39 in 2.0 mi Calm Calm - N/A   Haze
7:35 AM 28.9 °F - 23.5 °F 80% 30.39 in 2.5 mi Calm Calm - N/A   Haze
7:55 AM 31.1 °F - 24.4 °F 76% 30.40 in 3.0 mi Calm Calm - N/A   Haze
8:35 AM 33.4 °F - 23.9 °F 68% 30.40 in 5.0 mi Calm Calm - N/A   Haze
8:55 AM 34.7 °F 31.8 °F 23.2 °F 63% 30.39 in 5.0 mi NE 3.5 mph - N/A   Haze
9:15 AM 36.0 °F 33.3 °F 23.4 °F 60% 30.39 in 5.0 mi ENE 3.5 mph - N/A   Haze
9:35 AM 37.0 °F 31.6 °F 22.6 °F 56% 30.39 in 7.0 mi ENE 6.9 mph - N/A   Clear
9:55 AM 37.8 °F 32.5 °F 23.2 °F 56% 30.38 in 5.0 mi East 6.9 mph - N/A   Haze
10:15 AM 38.3 °F 33.2 °F 22.8 °F 54% 30.37 in 5.0 mi ENE 6.9 mph - N/A   Haze
10:35 AM 38.3 °F 32.5 °F 23.2 °F 55% 30.36 in 7.0 mi ENE 8.1 mph - N/A   Clear
10:55 AM 39.2 °F 35.0 °F 23.0 °F 52% 30.36 in 5.0 mi ENE 5.8 mph - N/A   Haze
11:15 AM 40.3 °F 36.3 °F 23.4 °F 51% 30.35 in 7.0 mi ENE 5.8 mph - N/A   Clear
11:35 AM 40.5 °F 36.5 °F 22.8 °F 49% 30.34 in 7.0 mi ENE 5.8 mph - N/A   Clear
11:55 AM 41.2 °F 37.3 °F 22.5 °F 47% 30.33 in 7.0 mi ESE 5.8 mph - N/A   Clear
12:15 PM 42.4 °F 39.6 °F 22.3 °F 45% 30.31 in 7.0 mi NE 4.6 mph - N/A   Clear
12:35 PM 42.4 °F 38.1 °F 22.3 °F 45% 30.31 in 10.0 mi East 6.9 mph - N/A   Clear
12:55 PM 43.5 °F 39.4 °F 22.8 °F 44% 30.29 in 7.0 mi East 6.9 mph - N/A   Clear
1:15 PM 43.3 °F - 21.2 °F 41% 30.29 in 10.0 mi Calm Calm - N/A   Clear
1:35 PM 43.5 °F - 21.9 °F 42% 30.28 in 7.0 mi Calm Calm - N/A   Clear
1:55 PM 43.9 °F 42.3 °F 21.7 °F 41% 30.27 in 10.0 mi East 3.5 mph - N/A   Clear
2:15 PM 43.9 °F 42.3 °F 21.9 °F 42% 30.27 in 10.0 mi East 3.5 mph - N/A   Clear
2:35 PM 44.6 °F 43.1 °F 21.4 °F 40% 30.26 in 10.0 mi North 3.5 mph - N/A   Clear
2:55 PM 43.9 °F - 20.8 °F 40% 30.26 in 10.0 mi Calm Calm - N/A   Clear
3:15 PM 43.3 °F 41.7 °F 21.9 °F 43% 30.26 in 10.0 mi NNE 3.5 mph - N/A   Clear
3:35 PM 43.0 °F 40.3 °F 21.0 °F 42% 30.26 in 10.0 mi ENE 4.6 mph - N/A   Clear
3:55 PM 41.9 °F 38.2 °F 20.3 °F 42% 30.25 in 10.0 mi NE 5.8 mph - N/A   Clear
4:15 PM 40.5 °F 38.4 °F 21.0 °F 46% 30.25 in 10.0 mi ENE 3.5 mph - N/A   Clear
4:35 PM 39.4 °F 37.2 °F 21.2 °F 48% 30.25 in 10.0 mi ENE 3.5 mph - N/A   Clear
4:55 PM 37.9 °F - 21.4 °F 51% 30.25 in 10.0 mi Calm Calm - N/A   Clear
5:15 PM 35.2 °F - 21.7 °F 58% 30.24 in 10.0 mi Calm Calm - N/A   Clear
5:55 PM 32.7 °F - 22.1 °F 65% 30.24 in 7.0 mi Calm Calm - N/A   Clear
6:35 PM 31.6 °F - 23.4 °F 71% 30.24 in 7.0 mi Calm Calm - N/A   Clear
6:55 PM 31.1 °F - 23.2 °F 72% 30.23 in 5.0 mi Calm Calm - N/A   Haze
7:15 PM 30.6 °F - 22.8 °F 73% 30.23 in 5.0 mi Calm Calm - N/A   Haze
7:35 PM 29.7 °F - 22.6 °F 75% 30.23 in 4.0 mi Calm Calm - N/A   Haze
7:55 PM 28.8 °F - 22.5 °F 77% 30.23 in 4.0 mi Calm Calm - N/A   Haze
8:15 PM 28.8 °F - 22.5 °F 77% 30.22 in 3.0 mi Calm Calm - N/A   Haze
8:35 PM 28.6 °F - 22.5 °F 78% 30.22 in 4.0 mi Calm Calm - N/A   Haze
8:55 PM 28.0 °F - 21.9 °F 78% 30.22 in 5.0 mi Calm Calm - N/A   Haze
9:15 PM 27.5 °F - 21.6 °F 78% 30.22 in 3.0 mi Calm Calm - N/A   Haze
9:35 PM 28.0 °F - 22.3 °F 79% 30.21 in 3.0 mi Calm Calm - N/A   Haze
10:15 PM 27.1 °F - 21.2 °F 78% 30.20 in 2.5 mi Calm Calm - N/A   Haze
10:35 PM 27.0 °F - 21.2 °F 79% 30.20 in 2.5 mi Calm Calm - N/A   Haze
10:55 PM 26.6 °F - 20.7 °F 78% 30.19 in 3.0 mi Calm Calm - N/A   Haze
11:15 PM 26.6 °F - 21.0 °F 79% 30.20 in 2.5 mi Calm Calm - N/A   Haze
11:35 PM 26.6 °F - 21.0 °F 79% 30.19 in 2.5 mi Calm Calm - N/A   Haze
11:55 PM 26.1 °F - 20.3 °F 79% 30.19 in 3.0 mi Calm Calm - N/A   Haze